Terug naar catalogus

ITUPSAT 1

ActiefAmateurradioSSO
NORAD 35935·PAYLOAD·🇹🇷 Turkey

Gelanceerd Sep 23, 2009 vanaf Satish Dhawan Space Centre

Loading…

Volgende Passages (komende 24 uur)

TLE

VersSource: Space-Track

Epoch: Sep 13, 2026, 16:25 UTC

1 35935U 09051E   26256.68420965  .00000565  00000-0  12647-3 0  9990
2 35935  98.3950 164.6240 0006933 334.1895  25.8958 14.60549775901654

Volg ITUPSAT 1 in realtime met AllMySat

Download on the App Store